Regional Weather Roundup
Issued by NWS Raleigh/Durham, NC

Home | Current Version | Previous Version | Text Only | Print | Product List | Glossary On
Versions: 1 2 3 4 5 6 7 8 9 10 11 12 13 14 15 16 17 18 19 20 21 22 23 24 25 26 27
000
ASUS42 KRAH 302210
RWRRAH
NORTH CAROLINA WEATHER ROUNDUP
NATIONAL WEATHER SERVICE RALEIGH NC
600 PM EDT TUE AUG 30 2016

NOTE: "FAIR" INDICATES FEW OR NO CLOUDS BELOW 12,000 FEET WITH NO
SIGNIFICANT WEATHER AND/OR OBSTRUCTIONS TO VISIBILITY.

NCZ001-053-055-056-065-067-302300-
WESTERN NORTH CAROLINA

CITY           SKY/WX    TMP DP  RH WIND       PRES   REMARKS
ASHEVILLE      SUNNY     82  60  47 S6        30.12F
JEFFERSON      SUNNY     76  64  67 CALM      30.18F
MORGANTON      MOSUNNY   87  65  47 CALM      30.10F
HICKORY        MOSUNNY   89  64  43 E5        30.05F
RUTHERFORDTON    N/A     88  66  47 NE3       30.06S
MOUNT AIRY     SUNNY     87  70  56 NE5       30.08F
BOONE          SUNNY     78  61  56 SE5       30.19F
$$

NCZ021-022-025-041-071-084-088-302300-
CENTRAL NORTH CAROLINA

CITY           SKY/WX    TMP DP  RH WIND       PRES   REMARKS
CHARLOTTE      CLOUDY    86  66  51 NW5       30.03F
GREENSBORO     MOSUNNY   89  64  43 NE7       30.04F
WINSTON-SALEM  MOSUNNY   87  65  47 NE5       30.06F
RALEIGH-DURHAM MOSUNNY   91  65  41 NE8       30.01F
FORT BRAGG     MOSUNNY   91  62  38 VRB6      29.99S
FAYETTEVILLE   MOSUNNY   90  67  46 NE6       30.00S
BURLINGTON     SUNNY     89  65  44 NE6       30.03S
LAURINBURG     PTSUNNY   88  67  49 SE8       30.01S
$$

NCZ011-015-027-028-043-044-047-080-103-302300-
NORTHEASTERN NORTH CAROLINA

CITY           SKY/WX    TMP DP  RH WIND       PRES   REMARKS
ROCKY MT-WILSO MOSUNNY   92  69  47 NE7       30.00S HX  97
GREENVILLE     SUNNY     88  73  62 NE7       30.02R HX  96
WASHINGTON     PTSUNNY   85  73  67 NE5       30.00R
ELIZABETH CITY MOSUNNY   82  74  76 NE12      30.01S
MANTEO         MOSUNNY   82  77  85 NE12      30.00S
CAPE HATTERAS  PTSUNNY   82  76  81 E7        29.97R
$$

NCZ078-087-090-091-093-098-101-302300-
SOUTHEASTERN NORTH CAROLINA

CITY           SKY/WX    TMP DP  RH WIND       PRES   REMARKS
LUMBERTON      MOSUNNY   88  68  51 NE5       29.99S
GOLDSBORO      MOSUNNY   91  67  45 NE9       29.98S
KINSTON        MOSUNNY   86  75  70 E6        30.00S HX  95
KENANSVILLE    CLOUDY    88  72  58 NE3       29.99S
NEW BERN       PTSUNNY   82  74  76 NE5       30.01S
CHERRY POINT   PTSUNNY   83  76  79 N5        30.00S
BEAUFORT       MOSUNNY   83  75  77 N10       29.98S
JACKSONVILLE   CLOUDY    80  75  84 N5        29.99F
WILMINGTON     CLOUDY    83  75  77 N13       29.99R
$$





USA.gov is the U.S. government's official web portal to all federal, state and local government web resources and services.